User: anonymous   Login
Location: Indian Springs
(36.5700°N, 115.6700°W)
Time: 23:57:23
(UTC-07:00)
Language:

Cosmos 2278 Rocket - Orbit

View from above orbital plane
View from above orbital plane
View from above satellite
View from above satellite

Ground track
Ground track

The orbit data is extracted from the following two-line orbital elements,

1 23088U 94023B   15085.46562966  .00000331  00000-0  19719-3 0  9999
2 23088 071.0007 189.9010 0005407 260.3604 099.6908 14.14611526 80463
Epoch (UTC): 26 March 2015 11:10:30
Eccentricity: 0.0005407
inclination: 71.0007°
perigee height: 840 km
apogee height: 847 km
right ascension of ascending node: 189.9010°
argument of perigee: 260.3604°
revolutions per day: 14.14611526
mean anomaly at epoch: 99.6908°
orbit number at epoch: 8046

The dashed part of the orbit path shows where the satellite is in the earth's shadow,  

DLR